Regional Weather Roundup
Issued by NWS Newport/Morehead, NC

Current Version | Previous Version | Graphics & Text | Print | Product List | Glossary Off
Versions: 1 2 3 4 5 6 7 8 9 10 11 12 13 14 15 16 17 18 19 20 21 22 23 24 25 26 27 28 29 30 31 32 33 34 35 36 37 38 39 40 41 42 43 44 45 46 47 48 49 50

000
ASUS42 KMHX 291210
RWRMHX
WEATHER ROUNDUP FOR EASTERN NORTH CAROLINA
NATIONAL WEATHER SERVICE NEWPORT/MOREHEAD CITY NC
800 AM EDT TUE JUL 29 2014

NOTE: "FAIR" INDICATES FEW OR NO CLOUDS BELOW 12,000 FEET
WITH NO SIGNIFICANT WEATHER AND/OR OBSTRUCTIONS TO VISIBILITY

NCZ015>017-031-032-045>047-102-103-291300-
NORTH COAST

CITY           SKY/WX    TMP DP  RH WIND       PRES   REMARKS
EDENTON        PTSUNNY   67  61  80 N9        29.91R
ELIZABETH CITY CLOUDY    72  62  71 N12       29.90R
KITTY HAWK     MOSUNNY   74  66  75 N3        29.88R
MANTEO         NOT AVBL

$$

NCZ045>047-081-094-103-104-291300-
CENTRAL COAST

CITY           SKY/WX    TMP DP  RH WIND       PRES   REMARKS
FRISCO         SUNNY     78  67  68 NE8       29.87R
SWANQUARTER      N/A     72 N/A N/A N3        29.85S

$$

NCZ095-097-098-100-101-291300-
SOUTHERN COAST

CITY           SKY/WX    TMP DP  RH WIND       PRES   REMARKS
BEAUFORT       SUNNY     74  66  76 N8        29.88R
CEDAR ISLAND     N/A     77 N/A N/A N10G17    29.91S
JACKSONVILLE   MOSUNNY   71  62  73 N9        29.90R
NEWPORT        NOT AVBL
PINEY ISLAND   SUNNY     78  68  71 N12       29.88R
WILMINGTON     MOSUNNY   72  63  73 N10       29.89S


$$

NCZ011>013-027>030-043-044-078>080-089-090>093-098-291300-
COASTAL PLAIN

CITY           SKY/WX    TMP DP  RH WIND       PRES   REMARKS
AHOSKIE        MOSUNNY   66  60  79 N6        29.94R
CLINTON        MOSUNNY   70  62  75 NE3       29.93S
ELIZABETHTOWN  MOSUNNY   68  62  79 CALM      29.92R
GOLDSBORO      PTSUNNY   69  63  81 N7        29.91R
GREENVILLE     CLOUDY    68  63  83 N5        29.95R
HAVELOCK       MOSUNNY   73  63  70 N9        29.90R
KENANSVILLE    MOSUNNY   69  61  75 N6        29.93S
KINSTON        MOSUNNY   70  63  78 N6        29.93R
NEW BERN       PTSUNNY   72  62  71 N7        29.92R
RICHLANDS      CLOUDY    68  61  77 N6        29.91S
ROANOKE RAPIDS NOT AVBL
ROCKY MOUNT    CLOUDY    68  59  73 N7        29.94R
WASHINGTON     MOSUNNY   68  60  77 N6        29.92R
WHITEVILLE     MOSUNNY   70  62  75 NE5       29.92R

$$

AMZ130-135-150-152-154-156-158-170-250-252-270-ANZ085-086-088-633-658-670-291300-
MARINE OBSERVATIONS

STATION/POSITION TIME  TEMP    WIND        PRES    WAVE   SWELL
                       AIR SEA DIR/SP/G            HT/PER HT/PER
                 (UTC) (F)     (DEG/KT/KT) (MB)    (FT/S) (FT/S)
CHESAPEAKE LIGHT NOT AVBL
BUOY 44014       1200   74 78  350/ 12/ 16 1011.1    3/ 5   2/ 7
DUCK             1200   71 62  330/ 12/ 13 1011.2
2E DUCK          1200                        N/A     3/ 5
OREGON INLET     1200   76 79  360/  7/ 10 1011.7
BUOY 44095       1200      79                N/A     3/ 8
20E OREGON INLET NOT AVBL
HATTERAS CG      1200   78 81   20/  9/ 13 1011.8
DIAMOND BUOY     1200          VRB 10/ 12  1010.9    3/ 8   3/ 8
CAPE LOOKOUT     1100   75      20/  9/ 12 1011.2
BEAUFORT LAB     1200   74 82   10/ 10/ 11 1011.4
30 SE NEW RIVER  1200   78 81   20/ 16/ 17 1011.2    4/ 7
5 SE WRIGHTSVILL 1100   73 81   30/ 14/ 17   N/A
BUOY 41002       1135   75 81  300/  8/ 10 1015.0    6/ 7   7/ 7
BUOY 41004       1200   82 84   20/ 14/ 16 1010.3    4/ 6   2/ 8

$$


USA.gov is the U.S. government's official web portal to all federal, state and local government web resources and services.